EW1719 Weather Reports


time (UTC)temp
C
wind
direction
speed
KPH
gust
KPH
rain 1hr
cm
rain 24hr
cm
rain mn
cm
humidity
%
barometer
mb
20260506103012 20 24 0.0 4.8 0.00 0.00 0.00 78 1012.0
20260506102803 20 19 1.6 4.8 0.00 0.00 0.00 78 1012.6
20260506101903 20 225 0.0 3.2 0.00 0.00 0.00 78 1012.7
20260506101516 20 225 0.0 3.2 0.00 0.00 0.00 78 1012.1
20260506101003 20 225 0.0 1.6 0.00 0.00 0.00 77 1012.5
20260506100015 20 225 0.0 4.8 0.00 0.00 0.00 78 1012.0
20260506095203 20 235 1.6 6.4 0.00 0.00 0.00 77 1012.5
20260506094511 19 199 1.6 6.4 0.00 0.00 0.00 77 1012.0
20260506094303 20 322 0.0 3.2 0.00 0.00 0.00 77 1012.5
20260506093403 20 248 0.0 8.0 0.00 0.00 0.00 77 1012.2
20260506093023 19 213 0.0 8.0 0.00 0.00 0.00 78 1011.5
20260506092503 20 297 0.0 8.0 0.00 0.00 0.00 78 1012.2
20260506091603 19 293 1.6 4.8 0.00 0.00 0.00 78 1012.0
20260506091504 19 337 1.6 4.8 0.00 0.00 0.00 79 1011.5
20260506090703 19 242 1.6 3.2 0.00 0.00 0.00 79 1011.7
20260506090009 18 282 0.0 3.2 0.00 0.00 0.00 79 1011.2
20260506085803 18 282 0.0 3.2 0.00 0.00 0.00 79 1011.8
20260506084903 18 282 0.0 1.6 0.00 0.00 0.00 80 1011.9
20260506084515 18 282 0.0 1.6 0.00 0.00 0.00 80 1011.3
20260506084003 18 282 0.0 3.2 0.00 0.00 0.00 79 1011.8
20260506083103 18 282 0.0 1.6 0.00 0.00 0.00 80 1011.8
20260506083006 18 282 0.0 1.6 0.00 0.00 0.00 80 1011.3
20260506082203 18 0 0.0 0.0 0.00 0.00 0.00 79 1011.7
20260506081514 18 282 0.0 3.2 0.00 0.00 0.00 79 1011.3
20260506081303 18 282 0.0 3.2 0.00 0.00 0.00 79 1012.0
20260506080403 18 0 0.0 1.6 0.00 0.00 0.00 79 1011.9
20260506073011 18 282 0.0 0.0 0.00 0.00 0.00 76 1011.4
20260506072803 18 0 0.0 0.0 0.00 0.00 0.00 76 1011.8
20260506071903 18 282 0.0 1.6 0.00 0.00 0.00 76 1012.0
20260506071517 18 282 0.0 1.6 0.00 0.00 0.00 76 1011.5
20260506071024 18 280 0.0 1.6 0.00 0.00 0.00 76 1012.0
20260506070104 18 281 0.0 3.2 0.00 0.00 0.00 76 1011.4
20260506062503 18 275 0.0 1.6 0.00 0.00 0.00 72 1012.4
20260506061603 18 277 0.0 1.6 0.00 0.00 0.00 72 1012.6
20260506061510 18 277 0.0 0.0 0.00 0.00 0.00 71 1012.2
20260506060703 18 275 0.0 1.6 0.00 0.00 0.00 70 1012.7
20260506051324 20 275 0.0 1.6 0.00 0.00 0.00 68 1013.0
20260506050403 20 275 0.0 3.2 0.00 0.00 0.00 68 1013.1
20260506044603 20 275 0.0 1.6 0.00 0.00 0.00 68 1013.3
20260506044516 20 275 0.0 0.0 0.00 0.00 0.00 68 1012.9
20260506043703 20 275 1.6 3.2 0.00 0.00 0.00 68 1013.2
20260506043111 20 275 0.0 3.2 0.00 0.00 0.00 67 1012.6
20260506042824 20 275 1.6 3.2 0.00 0.00 0.00 67 1012.9
20260506041903 20 275 0.0 3.2 0.00 0.00 0.00 69 1012.8
20260506041507 20 275 0.0 1.6 0.00 0.00 0.00 67 1012.2
20260506041003 20 275 1.6 3.2 0.00 0.00 0.00 67 1012.8
20260506040011 20 275 1.6 3.2 0.00 0.00 0.00 67 1012.6
20260506035203 20 275 3.2 4.8 0.00 0.00 0.00 66 1013.0
20260506034515 20 275 1.6 4.8 0.00 0.00 0.00 67 1012.7
20260506034304 20 259 1.6 4.8 0.00 0.00 0.00 67 1013.0
20260506033403 20 241 1.6 4.8 0.00 0.00 0.00 66 1012.8
20260506033005 20 236 0.0 4.8 0.00 0.00 0.00 67 1012.3
20260506032504 20 236 1.6 3.2 0.00 0.00 0.00 67 1012.4
20260506031604 20 236 0.0 4.8 0.00 0.00 0.00 67 1012.4
20260506031520 20 236 0.0 4.8 0.00 0.00 0.00 67 1012.0
20260506030703 20 233 0.0 3.2 0.00 0.00 0.00 67 1012.8
20260506030016 20 231 0.0 1.6 0.00 0.00 0.00 67 1012.7
20260506025804 20 231 0.0 3.2 0.00 0.00 0.00 68 1013.3
20260506024903 20 231 0.0 3.2 0.00 0.00 0.00 68 1013.3
20260506024507 20 231 0.0 3.2 0.00 0.00 0.00 67 1012.9
20260506024004 20 231 1.6 3.2 0.00 0.00 0.00 68 1013.3
20260506023103 20 230 0.0 1.6 0.00 0.00 0.00 66 1013.1
20260506023010 20 231 0.0 1.6 0.00 0.00 0.00 66 1012.7
20260506022204 21 230 0.0 3.2 0.00 0.00 0.00 68 1013.2
20260506021518 20 230 0.0 1.6 0.00 0.00 0.00 66 1012.6
20260506021304 20 229 0.0 3.2 0.00 0.00 0.00 66 1013.1
20260506020404 21 230 0.0 3.2 0.00 0.00 0.00 66 1012.9
20260506020005 20 230 0.0 0.0 0.00 0.00 0.00 66 1012.4
20260506015504 21 235 0.0 1.6 0.00 0.00 0.00 66 1012.7
20260506014604 21 233 0.0 3.2 0.00 0.00 0.00 65 1012.7
20260506014512 20 235 0.0 1.6 0.00 0.00 0.00 65 1012.3
20260506013725 21 234 0.0 3.2 0.00 0.00 0.00 65 1012.8
20260506013020 21 234 0.0 3.2 0.00 0.00 0.00 66 1012.2
20260506012804 21 234 0.0 3.2 0.00 0.00 0.00 66 1012.7
20260506011925 21 0 0.0 0.0 0.00 0.00 0.00 64 1012.7
20260506011511 21 236 0.0 1.6 0.00 0.00 0.00 65 1012.4
20260506011025 21 227 0.0 1.6 0.00 0.00 0.00 65 1012.7
20260506010104 21 233 0.0 1.6 0.00 0.00 0.00 63 1012.7
20260506010033 21 232 0.0 1.6 0.00 0.00 0.00 63 1012.3
20260506005204 21 231 0.0 1.6 0.00 0.00 0.00 62 1012.5
20260506004516 21 231 0.0 3.2 0.00 0.00 0.00 64 1012.1
20260506004304 21 230 0.0 3.2 0.00 0.00 0.00 64 1012.5
20260506003404 21 229 0.0 1.6 0.00 0.00 0.00 62 1012.5
20260506003005 21 229 0.0 1.6 0.00 0.00 0.00 63 1012.2
20260506002504 21 231 0.0 3.2 0.00 0.00 0.00 61 1012.4
20260506001604 22 230 1.6 3.2 0.00 0.00 0.00 61 1012.6
20260506001510 21 230 0.0 3.2 0.00 0.00 0.00 62 1012.2
20260506000704 22 230 0.0 3.2 0.00 0.00 0.00 58 1012.4
20260506000015 22 230 0.0 3.2 0.00 0.00 0.00 61 1012.2
20260505235804 22 230 0.0 1.6 0.00 0.00 0.00 60 1012.6
20260505234925 22 231 1.6 3.2 0.00 0.00 0.00 58 1012.4
20260505234504 22 230 0.0 3.2 0.00 0.00 0.00 58 1012.1
20260505234004 23 231 1.6 3.2 0.00 0.00 0.00 58 1012.7
20260505233104 23 231 0.0 1.6 0.00 0.00 0.00 56 1012.6
20260505233008 22 231 0.0 1.6 0.00 0.00 0.00 56 1012.2
20260505232225 23 230 0.0 4.8 0.00 0.00 0.00 55 1013.0
20260505231513 23 231 1.6 4.8 0.00 0.00 0.00 53 1012.6
20260505231304 23 229 1.6 4.8 0.00 0.00 0.00 53 1013.1
20260505230404 24 215 0.0 3.2 0.00 0.00 0.00 49 1012.8
20260505230024 24 227 0.0 4.8 0.00 0.00 0.00 51 1012.5
20260505225504 25 171 1.6 6.4 0.00 0.00 0.00 47 1012.9
20260505224604 25 228 1.6 6.4 0.00 0.00 0.00 47 1012.8
20260505224507 25 144 1.6 6.4 0.00 0.00 0.00 47 1012.5
20260505223704 25 231 1.6 6.4 0.00 0.00 0.00 49 1012.7
20260505223012 25 5 0.0 9.7 0.00 0.00 0.00 50 1012.5
20260505222804 25 113 3.2 9.7 0.00 0.00 0.00 47 1012.9
20260505221904 26 142 3.2 8.0 0.00 0.00 0.00 49 1012.6
20260505221518 25 159 1.6 8.0 0.00 0.00 0.00 50 1012.4
20260505221004 25 147 1.6 8.0 0.00 0.00 0.00 48 1012.7
20260505220125 25 94 1.6 3.2 0.00 0.00 0.00 53 1012.5
20260505220008 24 94 0.0 3.2 0.00 0.00 0.00 51 1012.2
20260505215204 24 81 1.6 6.4 0.00 0.00 0.00 52 1012.7
20260505214513 24 90 1.6 6.4 0.00 0.00 0.00 49 1012.3
20260505214304 25 263 0.0 4.8 0.00 0.00 0.00 48 1012.7
20260505213404 25 234 0.0 6.4 0.00 0.00 0.00 51 1012.8
20260505213024 25 223 0.0 6.4 0.00 0.00 0.00 47 1012.6
20260505212504 25 208 3.2 6.4 0.00 0.00 0.00 45 1012.8
20260505211625 25 256 3.2 8.0 0.00 0.00 0.00 46 1012.6
20260505211507 25 183 1.6 8.0 0.00 0.00 0.00 47 1012.2
20260505210704 25 247 1.6 6.4 0.00 0.00 0.00 45 1012.5
20260505210011 25 288 0.0 6.4 0.00 0.00 0.00 47 1012.2
20260505205804 25 235 1.6 6.4 0.00 0.00 0.00 46 1012.8
20260505204904 26 242 3.2 8.0 0.00 0.00 0.00 43 1013.2
20260505204514 26 236 3.2 16.1 0.00 0.00 0.00 40 1012.9
20260505204004 26 257 4.8 16.1 0.00 0.00 0.00 39 1013.1
20260505203104 26 254 3.2 12.9 0.00 0.00 0.00 46 1013.3
20260505203028 26 355 1.6 12.9 0.00 0.00 0.00 47 1012.9
20260505202204 26 243 4.8 11.3 0.00 0.00 0.00 42 1013.4
20260505201510 26 274 3.2 12.9 0.00 0.00 0.00 40 1012.9
20260505201304 26 229 4.8 12.9 0.00 0.00 0.00 41 1013.5
20260505200404 26 260 3.2 9.7 0.00 0.00 0.00 40 1013.6
20260505200011 26 250 3.2 14.5 0.00 0.00 0.00 41 1013.2
20260505195504 26 255 6.4 14.5 0.00 0.00 0.00 41 1013.6
20260505194625 26 249 6.4 19.3 0.00 0.00 0.00 42 1013.6
20260505194518 26 360 4.8 19.3 0.00 0.00 0.00 44 1013.4
20260505193704 26 222 4.8 12.9 0.00 0.00 0.00 42 1013.8
20260505193018 25 90 3.2 14.5 0.00 0.00 0.00 46 1013.5
20260505192804 26 262 6.4 16.1 0.00 0.00 0.00 45 1013.9
20260505191904 26 272 4.8 20.9 0.00 0.00 0.00 45 1014.2
20260505191506 26 266 4.8 20.9 0.00 0.00 0.00 41 1013.7
20260505191025 26 232 3.2 14.5 0.00 0.00 0.00 43 1014.3
20260505190104 25 245 3.2 11.3 0.00 0.00 0.00 41 1014.4
20260505190010 25 238 1.6 9.7 0.00 0.00 0.00 45 1014.0
20260505185204 25 249 4.8 12.9 0.00 0.00 0.00 44 1014.5
20260505184515 25 223 4.8 16.1 0.00 0.00 0.00 43 1014.0
20260505184304 25 264 4.8 16.1 0.00 0.00 0.00 45 1014.5
20260505183404 25 178 3.2 16.1 0.00 0.00 0.00 45 1014.5
20260505183018 25 360 3.2 11.3 0.00 0.00 0.00 43 1014.0
20260505182525 25 208 4.8 16.1 0.00 0.00 0.00 44 1014.6
20260505181604 25 214 6.4 16.1 0.00 0.00 0.00 42 1014.6
20260505181507 25 199 6.4 16.1 0.00 0.00 0.00 41 1014.2
20260505180704 25 196 3.2 11.3 0.00 0.00 0.00 43 1014.7
20260505180011 25 194 3.2 9.7 0.00 0.00 0.00 45 1014.3
20260505175826 25 196 4.8 24.1 0.00 0.00 0.00 46 1014.7
20260505174904 25 209 4.8 14.5 0.00 0.00 0.00 50 1014.7
20260505174517 25 258 4.8 14.5 0.00 0.00 0.00 50 1014.3
20260505174025 25 201 4.8 14.5 0.00 0.00 0.00 50 1014.8
20260505173107 25 207 4.8 14.5 0.00 0.00 0.00 48 1014.9
20260505173104 25 212 4.8 17.7 0.00 0.00 0.00 48 1015.2
20260505172204 25 201 6.4 24.1 0.00 0.00 0.00 47 1015.4
20260505171507 25 20 3.2 24.1 0.00 0.00 0.00 50 1015.1
20260505171304 25 210 8.0 24.1 0.00 0.00 0.00 48 1015.5
20260505170425 25 176 3.2 19.3 0.00 0.00 0.00 50 1015.6
20260505170018 24 227 4.8 17.7 0.00 0.00 0.00 50 1015.3
20260505165504 25 190 4.8 17.7 0.00 0.00 0.00 50 1015.7
20260505164604 24 202 4.8 14.5 0.00 0.00 0.00 52 1015.7
20260505164506 24 205 1.6 14.5 0.00 0.00 0.00 56 1015.4
20260505163704 23 229 4.8 14.5 0.00 0.00 0.00 56 1015.8
20260505163010 23 210 3.2 11.3 0.00 0.00 0.00 55 1015.5
20260505162804 23 245 4.8 11.3 0.00 0.00 0.00 58 1015.8
20260505161904 23 282 4.8 17.7 0.00 0.00 0.00 57 1015.9
20260505161510 22 144 1.6 9.7 0.00 0.00 0.00 58 1015.4
20260505161004 22 326 3.2 11.3 0.00 0.00 0.00 58 1015.7
20260505160104 22 331 1.6 11.3 0.00 0.00 0.00 58 1015.5
20260505153017 21 236 0.0 4.8 0.00 0.00 0.00 63 1015.8
20260505152504 21 360 3.2 8.0 0.00 0.00 0.00 63 1016.2
20260505151624 20 58 1.6 4.8 0.00 0.00 0.00 65 1015.8
20260505151604 21 59 1.6 4.8 0.00 0.00 0.00 65 1016.1
20260505150726 20 49 1.6 4.8 0.00 0.00 0.00 66 1016.0
20260505140405 17 299 1.6 3.2 0.00 0.00 0.00 70 1016.3
20260505130105 13 279 0.0 3.2 0.00 0.00 0.00 85 1016.5
20260505130103 13 279 0.0 3.2 0.00 0.00 0.00 85 1016.3
20260505124504 12 279 0.0 0.0 0.00 0.00 0.00 89 1015.9
20260505124305 12 0 0.0 0.0 0.00 0.00 0.00 90 1016.0
20260505123405 11 0 0.0 0.0 0.00 0.00 0.00 91 1015.9
20260505123009 11 279 0.0 0.0 0.00 0.00 0.00 91 1015.6
20260505122505 11 0 0.0 0.0 0.00 0.00 0.00 91 1015.9
20260505121605 10 279 0.0 3.2 0.00 0.00 0.00 91 1015.8
20260505121510 10 279 0.0 3.2 0.00 0.00 0.00 91 1015.5
20260505120705 10 279 0.0 1.6 0.00 0.00 0.00 91 1015.6
20260505120038 10 279 0.0 0.0 0.00 0.00 0.00 91 1015.3
20260505115826 10 0 0.0 0.0 0.00 0.00 0.00 91 1015.4
20260505114905 10 279 0.0 3.2 0.00 0.00 0.00 92 1015.5
20260505114602 10 279 0.0 1.6 0.00 0.00 0.00 92 1015.2
20260505114026 10 279 0.0 1.6 0.00 0.00 0.00 92 1015.3
20260505113105 10 279 0.0 1.6 0.00 0.00 0.00 91 1015.2
20260505113005 9 279 0.0 1.6 0.00 0.00 0.00 91 1015.0
20260505112226 9 279 0.0 1.6 0.00 0.00 0.00 91 1015.1
20260505111507 9 279 0.0 1.6 0.00 0.00 0.00 91 1014.7
20260505111305 9 279 0.0 1.6 0.00 0.00 0.00 91 1014.8
20260505110405 8 279 1.6 3.2 0.00 0.00 0.00 91 1014.8